2024-174D (61241 NORAD) Tracking and Keplerian Element Data

This shows tracking and keplerian element data for the satellite.

Feedback or suggestion? Click here.




ElementValue
Catalog61241
Name2024-174D
Epoch Orbit267
Epoch Day286.8427975
Epoch Year2024
RAAN291.8182
Inclination97.4532
Eccentricity0.0014255
Argument of Perigee214.7129
Mean Anonmoly145.3175
Mean Motion15.16617563
Decay Rate0.00015117
L11 61241U 24174D 24286.84279750 .00015117 00000+0 77392-3 0 9991
L22 61241 97.4532 291.8182 0014255 214.7129 145.3175 15.16617563 2672



Live tracking and technical data element details for 2024-174D (NORAD 61241). 2024-174D can be tracked NOW for your location showing map with azimuth and elevation plus other details from your city location.







IsCatalogInMostPopularTable: catalog: 61241, numindb: 26
Update: records affected: 1



GetName: 61241 2024-174D

Hit Count: updated at: Fri, 06 Dec 2024 11:13:00 GMT